Location: Darmstadt
(49.8706°N, 8.6494°E)
Time: 06:58:24
(UTC+01:00)

Cosmos 2278 - Pass Details

Date: 31 October 2020
Orbit: 841 x 851 km, 71.1° (Epoch: 03 December)

Event Time Altitude Azimuth Distance (km) Brightness Sun altitude
Rises 18:36:07 0° 185° (S) 3,397 7.0 -15.3°
Reaches altitude 10° 18:38:39 10° 179° (S) 2,465 6.2 -15.7°
Maximum altitude 18:43:58 44° 109° (ESE) 1,165 4.0 -16.6°
Enters shadow 18:47:45 19° 46° (NE) 1,936 5.2 -17.2°
